Weather History for Covington, KY

Change the Weather History Date:

Sunday, July 6, 2014

  Actual Average Record
Temperature  
Mean Temperature 70 °F 76 °F  
Max Temperature 83 °F 86 °F 104 °F (2012)
Min Temperature 57 °F 66 °F 50 °F (1997)
Degree Days  
Heating Degree Days 0 0  
Month to date heating degree days 0 0  
Since 1 June heating degree days 3 15  
Since 1 July heating degree days 0 0  
Cooling Degree Days 5 11  
Month to date cooling degree days 36 64  
Year to date cooling degree days 444 384  
Since 1 June cooling degree days 310 290  
Growing Degree Days 20 (Base 50)    
Moisture  
Dew Point 56 °F    
Average Humidity 65    
Maximum Humidity 86    
Minimum Humidity 43    
Precipitation  
Precipitation 0.00 in 0.13 in 1.43 in (1911)
Month to date precipitation 0.61 0.69  
Year to date precipitation 24.30 23.31  
Snow  
Snow 0.00 in 0.00 in - ()
Month to date snowfall 0.0 0.0  
Since 1 June snowfall 0.0 0.0  
Since 1 July snowfall 0.0 0.0  
Snow Depth 0.00 in    
Sea Level Pressure  
Sea Level Pressure 30.02 in    
Wind  
Wind Speed 6 mph (SSW)    
Max Wind Speed 18 mph    
Max Gust Speed 24 mph    
Visibility 10 miles    
Events      
T = Trace of Precipitation, MM = Missing Value Source: NWS Daily Summary

Daily Weather History Graph

Daily Weather History Graph

Search for Another Location

Airport:

Trip Planner

Search our weather history database for the weather conditions in past years. The results will help you decide how hot, cold, wet, or windy it might be!

Date:

Astronomy

Jul. 06, 2014 Rise Set
Actual Time 6:19 AM EDT 9:07 PM EDT
Civil Twilight 5:47 AM EDT 9:39 PM EDT
Nautical Twilight 5:07 AM EDT 10:19 PM EDT
Astronomical Twilight 4:21 AM EDT 11:04 PM EDT
Moon 3:08 PM EDT (7/6) 1:35 AM EDT (7/6)
Length of Visible Light 15h 51m
Length of Day
14h 48m
Waxing Gibbous, 62% of the Moon is Illuminated
Jul 6
Waxing Gibbous
Jul 12
Full
Jul 18
Last Quarter
Jul 26
New
Aug 3
First Quarter

Hourly Weather History & Observations

Time (EDT) Temp. Heat Index Dew Point Humidity Pressure Visibility Wind Dir Wind Speed Gust Speed Precip Events Conditions
12:52 AM 61.0 °F - 52.0 °F 72% 30.12 in 10.0 mi South 3.5 mph - N/A   Mostly Cloudy
1:52 AM 66.9 °F - 48.9 °F 52% 30.10 in 10.0 mi Calm Calm - N/A   Mostly Cloudy
2:52 AM 66.9 °F - 50.0 °F 54% 30.08 in 10.0 mi SSE 4.6 mph - N/A   Mostly Cloudy
3:52 AM 66.0 °F - 51.1 °F 59% 30.08 in 10.0 mi Calm Calm - N/A   Scattered Clouds
4:52 AM 60.1 °F - 54.0 °F 80% 30.07 in 10.0 mi Calm Calm - N/A   Scattered Clouds
5:52 AM 63.0 °F - 53.1 °F 70% 30.06 in 10.0 mi Calm Calm - N/A   Mostly Cloudy
6:52 AM 57.9 °F - 54.0 °F 87% 30.06 in 10.0 mi South 4.6 mph - N/A   Mostly Cloudy
7:52 AM 64.0 °F - 57.9 °F 80% 30.06 in 10.0 mi South 4.6 mph - N/A   Mostly Cloudy
8:52 AM 70.0 °F - 57.9 °F 65% 30.06 in 10.0 mi SSW 5.8 mph - N/A   Mostly Cloudy
9:52 AM 71.1 °F - 55.9 °F 59% 30.07 in 10.0 mi SSW 5.8 mph - N/A   Overcast
10:52 AM 75.0 °F - 60.1 °F 60% 30.05 in 10.0 mi SSW 5.8 mph - N/A   Scattered Clouds
11:52 AM 75.9 °F - 59.0 °F 56% 30.05 in 10.0 mi SW 10.4 mph - N/A   Mostly Cloudy
12:52 PM 78.1 °F - 55.9 °F 46% 30.05 in 10.0 mi SW 11.5 mph 23.0 mph N/A   Mostly Cloudy
1:52 PM 79.0 °F - 57.9 °F 48% 30.02 in 10.0 mi SW 12.7 mph 19.6 mph N/A   Mostly Cloudy
2:52 PM 80.1 °F 80.9 °F 60.1 °F 50% 30.00 in 10.0 mi SSW 11.5 mph - N/A   Scattered Clouds
3:52 PM 82.4 °F 82.0 °F 57.2 °F 42% 30.02 in 10.0 mi SW 13.8 mph 21.9 mph N/A   Mostly Cloudy
4:52 PM 82.9 °F 82.6 °F 57.9 °F 42% 29.97 in 10.0 mi SSW 12.7 mph 18.4 mph N/A   Scattered Clouds
5:52 PM 81.0 °F 81.0 °F 57.0 °F 44% 29.96 in 10.0 mi SW 8.1 mph - N/A   Mostly Cloudy
6:52 PM 81.0 °F 81.1 °F 57.9 °F 45% 29.94 in 10.0 mi SW 6.9 mph - N/A   Overcast
7:52 PM 80.1 °F 80.9 °F 60.1 °F 50% 29.94 in 10.0 mi SSW 4.6 mph - N/A   Scattered Clouds
8:52 PM 77.0 °F - 59.0 °F 54% 29.93 in 10.0 mi SW 5.8 mph - N/A   Scattered Clouds
9:52 PM 75.0 °F - 59.0 °F 57% 29.94 in 10.0 mi South 5.8 mph - N/A   Scattered Clouds
10:52 PM 72.0 °F - 59.0 °F 64% 29.94 in 10.0 mi SSW 5.8 mph - N/A   Scattered Clouds
11:52 PM 72.0 °F - 59.0 °F 64% 29.93 in 10.0 mi SSW 5.8 mph - N/A   Clear